Weather History for Grazzanise, Italy

Change the Weather History Date:

Thursday, May 23, 2013

  Actual Average (LIRN) Record (LIRN)
Temperature  
Mean Temperature 63 °F -  
Max Temperature 69 °F 78 °F 91 °F (2006)
Min Temperature 57 °F 57 °F 51 °F (1999)
Degree Days  
Heating Degree Days 2    
Growing Degree Days 13 (Base 50)    
Moisture  
Dew Point 58 °F    
Average Humidity 84    
Maximum Humidity 100    
Minimum Humidity 61    
Precipitation  
Precipitation 0.00 in 0.04 in - ()
Sea Level Pressure  
Sea Level Pressure 29.51 in    
Wind  
Wind Speed 8 mph ()    
Max Wind Speed 21 mph    
Max Gust Speed 32 mph    
Visibility 7.4 miles    
Events Rain    
Averages and records for this station are not official NWS values.
T = Trace of Precipitation, MM = Missing Value Source: Averaged Metar Reports

Daily Weather History Graph

Daily Weather History Graph

Search for Another Location

Airport:

Trip Planner

Search our weather history database for the weather conditions in past years. The results will help you decide how hot, cold, wet, or windy it might be!

Date:

Astronomy

May. 23, 2013 Rise Set
Actual Time 5:38 AM CEST 8:22 PM CEST
Civil Twilight 5:06 AM CEST 8:54 PM CEST
Nautical Twilight 4:26 AM CEST 9:35 PM CEST
Astronomical Twilight 3:40 AM CEST 10:21 PM CEST
Moon 6:33 PM CEST (5/23) 4:12 AM CEST (5/23)
Length of Visible Light 15h 47m
Length of Day
14h 43m
Waxing Gibbous, 95% of the Moon is Illuminated
May 23
Waxing Gibbous
May 25
Full
May 31
Last Quarter
Jun 8
New
Jun 16
First Quarter

Hourly Weather History & Observations

Time (CEST) Temp. Dew Point Humidity Pressure Visibility Wind Dir Wind Speed Gust Speed Precip Events Conditions
12:55 AM 57.2 °F 55.4 °F 94% 29.42 in 6.2 mi East 6.9 mph - N/A   Mostly Cloudy
1:55 AM 57.2 °F 53.6 °F 88% 29.44 in 6.2 mi WNW 9.2 mph - N/A Rain Light Rain
2:00 AM 57 °F 54 °F 88% 29.45 in 7 mi WNW 9.2 mph - -   Overcast
2:55 AM 57.2 °F 53.6 °F 88% 29.44 in 6.2 mi West 9.2 mph - N/A Rain Light Rain
3:55 AM 59.0 °F 55.4 °F 88% 29.42 in 6.2 mi East 3.5 mph - N/A Rain Light Rain
4:55 AM 59.0 °F 55.4 °F 88% 29.42 in 6.2 mi SSE 3.5 mph - N/A Rain Light Rain
5:00 AM 58 °F 55 °F 88% 29.42 in 9 mi SSE 3.5 mph - - Rain Light Rain
5:55 AM 59.0 °F 53.6 °F 82% 29.42 in 6.2 mi WNW 2.3 mph - N/A   Scattered Clouds
6:55 AM 59.0 °F 55.4 °F 88% 29.44 in 6.2 mi WSW 2.3 mph - N/A   Mostly Cloudy
7:55 AM 62.6 °F 57.2 °F 82% 29.44 in 6.2 mi WSW 4.6 mph - N/A   Mostly Cloudy
8:00 AM 63 °F 58 °F 79% 29.46 in 7 mi WSW 4.6 mph - -  
8:55 AM 64.4 °F 59.0 °F 83% 29.47 in 6.2 mi West 11.5 mph 23.0 mph N/A   Scattered Clouds
9:55 AM 64.4 °F 59.0 °F 83% 29.47 in 6.2 mi West 13.8 mph 25.3 mph N/A   Mostly Cloudy
10:55 AM 66.2 °F 60.8 °F 83% 29.50 in 6.2 mi West 15.0 mph - N/A   Mostly Cloudy
11:00 AM 67 °F 62 °F 77% 29.51 in 12 mi West 15.0 mph - -   Mostly Cloudy
11:55 AM 66.2 °F 59.0 °F 78% 29.50 in 6.2 mi WSW 18.4 mph - N/A   Mostly Cloudy
12:55 PM 66.2 °F 59.0 °F 78% 29.50 in 6.2 mi WSW 17.3 mph 28.8 mph N/A   Scattered Clouds
1:55 PM 69.8 °F 59.0 °F 68% 29.53 in 6.2 mi WSW 17.3 mph - N/A   Mostly Cloudy
2:00 PM 69 °F 58 °F 61% 29.55 in 16 mi WSW 17.3 mph - -  
2:55 PM 68.0 °F 60.8 °F 78% 29.53 in 6.2 mi WSW 20.7 mph 32.2 mph N/A   Mostly Cloudy
3:55 PM 66.2 °F 62.6 °F 88% 29.53 in 6.2 mi WSW 15.0 mph - N/A   Mostly Cloudy
4:55 PM 66.2 °F 59.0 °F 78% 29.53 in 6.2 mi West 12.7 mph - N/A   Mostly Cloudy
5:00 PM 66 °F 60 °F 75% 29.56 in 16 mi West 12.7 mph - -   Mostly Cloudy
5:55 PM 64.4 °F 59.0 °F 83% 29.53 in 6.2 mi West 11.5 mph - N/A   Mostly Cloudy
6:55 PM 64.4 °F 60.8 °F 88% 29.56 in 6.2 mi West 8.1 mph - N/A   Mostly Cloudy
7:55 PM 62.6 °F 62.6 °F 100% 29.56 in 6.2 mi North 1.2 mph - N/A   Scattered Clouds
8:00 PM 63 °F 62 °F 97% 29.59 in 12 mi North 1.2 mph - -  
8:55 PM 60.8 °F 59.0 °F 94% 29.62 in 6.2 mi West 3.5 mph - N/A   Mostly Cloudy
9:55 PM 60.8 °F 57.2 °F 88% 29.65 in 5.0 mi West 3.5 mph - N/A Rain Light Rain
10:55 PM 60.8 °F 57.2 °F 88% 29.65 in 6.2 mi WNW 6.9 mph - N/A   Scattered Clouds
11:00 PM 61 °F 58 °F 86% 29.68 in 9 mi WNW 6.9 mph - - Rain Light Rain
11:55 PM 59.0 °F 57.2 °F 94% 29.68 in 6.2 mi West 9.2 mph - N/A   Scattered Clouds